Weather Roundup
Issued by NWS Chicago, IL

Home | Current Version | Previous Version | Graphics & Text | Print | Product List | Glossary On
Versions: 1 2 3 4 5 6 7 8 9 10 11 12 13 14 15 16 17 18 19 20 21 22 23 24 25 26 27 28 29 30 31 32 33 34 35 36 37 38 39 40 41 42 43 44 45 46 47 48 49 50
000
NZUS59 KLOT 112000
HRRLOT

CHICAGO AREA WEATHER ROUNDUP
NATIONAL WEATHER SERVICE CHICAGO/ROMEOVILLE IL
300 PM CDT FRI JUL 11 2014

NOTE: "FAIR" INDICATES FEW OR NO CLOUDS BELOW 12,000 FEET WITH NO
SIGNIFICANT WEATHER AND/OR OBSTRUCTIONS TO VISIBILITY.

* THESE STATIONS ARE NOT UNDER NWS QUALITY CONTROL. THEY ALSO MAY NOT
  REPORT WEATHER SUCH AS PRECIPITATION OR FOG.

ILZ005-006-012>014-019>023-112100-
NORTHEAST ILLINOIS

CITY           SKY/WX    TMP DP  RH WIND       PRES   REMARKS
OHARE          CLOUDY    79  50  36 S9        30.14F
MIDWAY         PTSUNNY   81  49  32 S9        30.15F HX  80
AURORA         PTSUNNY   78  55  44 SE10      30.15F
WAUKEGAN       PTSUNNY   72  54  53 SE9       30.15F
DUPAGE AIRPORT CLOUDY    80  53  39 S8        30.15F HX  80
WHEELING       CLOUDY    80  49  33 SW7       30.15F
NORTHERLY IS     N/A     73  60  63 E10         N/A
$$

WIZ051-052-058>065-066-070>072-112100-
SOUTHEAST WISCONSIN

CITY           SKY/WX    TMP DP  RH WIND       PRES   REMARKS
MILWAUKEE      CLOUDY    75  52  44 S14       30.14F
KENOSHA*       CLOUDY    74  53  48 SE10      30.16F
RACINE*        PTSUNNY   73  55  53 S9        30.17F
WAUKESHA       CLOUDY    73  54  49 S12       30.15F
$$

INZ001>003-010>013-019-020-112100-
NORTHWEST INDIANA

CITY           SKY/WX    TMP DP  RH WIND       PRES   REMARKS
GARY*          MOSUNNY   81  48  32 SE9       30.17F HX  80
MICHIGAN CITY* NOT AVBL
RENSSELAER*    NOT AVBL
VALPARAISO     SUNNY     80  52  37 S8        30.18F HX  80
$$

LMZ740>746-112100-
SOUTHERN LAKE MICHIGAN

STATION/POSITION TIME  SKY/WX   TEMP WIND        PRES    VSBY
                                AIR  DIR/SP/G
                 (UTC)          (F)  (DEG/KT/KT) (MB)    (MI)
HARRISON CRIB    1900            72  100/ 13/ 14   N/A
BURNHAM HARBOR   2000            72   90/ 10/ 10   N/A
CALUMET HARBOR   1900            72   40/  7/  9 1022.2F
BURNS HARBOR     1900            80  170/  4/ 12 1022.4S
MICHIGAN CITY    1900            74  350/  7/  8   N/A
$$

ABBREVIATIONS USED IN REMARKS
   TC - TEMPERATURE IN CELSIUS
  WCI - WIND CHILL INDEX
   HX - HEAT INDEX
  VSB - VISIBILITY
$$


USA.gov is the U.S. government's official web portal to all federal, state and local government web resources and services.